OK2ZAW-16 Weather Reports


time (UTC)temp
C
wind
direction
speed
KPH
gust
KPH
rain 1hr
cm
rain 24hr
cm
rain mn
cm
humidity
%
barometer
mb
20260905170357 11 0 11.3 16.1 0.00 0.00 0.00 79 1021.8
20260905165848 11 0 11.3 22.5 0.00 0.00 0.00 79 1021.8
20260905165339 11 0 11.3 22.5 0.00 0.00 0.00 79 1021.8
20260905164322 11 0 11.3 0.0 0.00 0.00 0.00 79 1021.8
20260905163304 11 0 11.3 19.3 0.00 0.00 0.00 80 1021.9
20260905162755 11 0 11.3 32.2 0.00 0.00 0.00 80 1021.8
20260905162247 11 0 9.7 12.9 0.00 0.00 0.00 80 1021.8
20260905161738 11 0 9.7 16.1 0.00 0.00 0.00 80 1021.8
20260905161229 12 0 8.0 19.3 0.00 0.00 0.00 80 1021.7
20260905160720 12 0 9.7 19.3 0.00 0.00 0.00 81 1021.6
20260905160211 12 0 9.7 12.9 0.00 0.00 0.00 81 1021.5
20260905155702 12 0 11.3 29.0 0.00 0.00 0.00 81 1021.6
20260905155154 12 0 6.4 14.5 0.00 0.00 0.00 81 1021.5
20260905154645 12 0 9.7 20.9 0.00 0.00 0.00 81 1021.5
20260905154136 12 0 11.3 19.3 0.00 0.00 0.00 81 1021.3
20260905153627 12 0 8.0 12.9 0.00 0.00 0.00 82 1021.4
20260905153118 12 0 11.3 22.5 0.00 0.00 0.00 82 1021.4
20260905152609 12 0 9.7 0.0 0.00 0.00 0.00 82 1021.3
20260905152101 12 0 6.4 12.9 0.00 0.00 0.00 82 1021.4
20260905151552 12 0 6.4 9.7 0.00 0.00 0.00 82 1021.4
20260905151043 12 0 6.4 12.9 0.00 0.00 0.00 82 1021.4
20260905150534 12 0 6.4 11.3 0.00 0.00 0.00 82 1021.2
20260905150025 12 0 8.0 0.0 0.00 0.00 0.00 82 1021.2
20260905145516 12 0 8.0 0.0 0.00 0.00 0.00 83 1021.1
20260905144459 12 0 8.0 0.0 0.00 0.00 0.00 84 1021.1
20260905143950 12 0 9.7 0.0 0.00 0.00 0.00 84 1021.2
20260905143441 12 0 8.0 12.9 0.00 0.00 0.00 85 1021.0
20260905142932 12 0 6.4 11.3 0.00 0.00 0.00 85 1020.9
20260905142423 12 0 9.7 14.5 0.00 0.00 0.00 85 1021.0
20260905141914 12 0 9.7 22.5 0.00 0.00 0.00 86 1021.0
20260905141405 12 0 8.0 16.1 0.00 0.00 0.00 86 1021.0
20260905140857 12 0 8.0 16.1 0.00 0.00 0.00 87 1020.9
20260905140348 12 0 8.0 16.1 0.00 0.00 0.00 87 1021.1
20260905135839 12 0 6.4 11.3 0.00 0.00 0.00 88 1021.1
20260905135330 12 0 12.9 30.6 0.00 0.00 0.00 88 1021.0
20260905134821 12 0 8.0 12.9 0.00 0.00 0.00 89 1021.0
20260905134312 12 0 8.0 11.3 0.00 0.00 0.00 89 1020.9
20260905133803 12 0 12.9 20.9 0.00 0.00 0.00 88 1021.1
20260905133255 12 0 6.4 9.7 0.00 0.00 0.00 89 1021.0
20260905132746 12 0 6.4 12.9 0.00 0.00 0.00 90 1021.1
20260905131728 12 0 8.0 14.5 0.00 0.00 0.00 91 1021.1
20260905131219 11 0 8.0 12.9 0.00 0.00 0.00 92 1021.1
20260905130710 11 0 8.0 11.3 0.00 0.00 0.00 92 1021.2
20260905130202 11 0 6.4 11.3 0.00 0.00 0.00 92 1021.1
20260905125653 11 0 6.4 11.3 0.00 0.00 0.00 93 1021.1
20260905125144 11 0 6.4 8.0 0.00 0.00 0.00 93 1021.2
20260905124635 11 0 6.4 11.3 0.00 0.00 0.00 93 1021.2
20260905124126 11 0 4.8 11.3 0.00 0.00 0.00 92 1021.3
20260905123618 11 0 4.8 9.7 0.00 0.00 0.00 92 1021.3
20260905123109 11 0 6.4 14.5 0.00 0.00 0.00 92 1021.4
20260905122600 11 0 12.9 27.4 0.00 0.00 0.00 92 1021.3
20260905122051 11 0 6.4 12.9 0.00 0.00 0.00 93 1021.4
20260905121542 11 0 8.0 12.9 0.00 0.00 0.00 93 1021.5
20260905121034 11 0 8.0 12.9 0.00 0.00 0.00 94 1021.4
20260905120525 11 0 9.7 19.3 0.00 0.00 0.00 95 1021.3
20260905120016 11 0 6.4 16.1 0.00 0.00 0.00 95 1021.4
20260905115507 11 0 8.0 12.9 0.00 0.00 0.00 94 1021.3
20260905114958 11 0 6.4 11.3 0.00 0.00 0.00 94 1021.4
20260905114450 11 0 6.4 12.9 0.00 0.00 0.00 95 1021.2
20260905113941 11 0 6.4 14.5 0.00 0.00 0.00 95 1021.5
20260905113432 11 0 4.8 8.0 0.00 0.00 0.00 94 1021.5
20260905112923 11 0 6.4 11.3 0.00 0.00 0.00 94 1021.3
20260905112414 11 0 6.4 9.7 0.00 0.00 0.00 94 1021.4
20260905111906 11 0 6.4 12.9 0.00 0.00 0.00 94 1021.3
20260905111357 11 0 4.8 9.7 0.00 0.00 0.00 94 1021.2
20260905110848 11 0 6.4 11.3 0.00 0.00 0.00 94 1021.2
20260905105830 11 0 6.4 11.3 0.00 0.00 0.00 95 1021.2
20260905105322 11 0 6.4 11.3 0.00 0.00 0.00 95 1021.2
20260905104813 11 0 9.7 17.7 0.00 0.00 0.00 94 1021.1
20260905103755 11 0 4.8 9.7 0.00 0.00 0.00 94 1021.0
20260905103246 11 0 6.4 11.3 0.00 0.00 0.00 94 1021.0
20260905102229 11 0 6.4 12.9 0.00 0.00 0.00 95 1020.8
20260905101211 11 0 8.0 12.9 0.00 0.00 0.00 96 1021.0
20260905100702 11 0 6.4 11.3 0.00 0.00 0.00 96 1020.9
20260905100154 11 0 6.4 9.7 0.00 0.00 0.00 96 1020.8
20260905095136 11 0 6.4 14.5 0.00 0.00 0.00 96 1020.9
20260905094627 10 0 6.4 11.3 0.00 0.00 0.00 96 1020.9
20260905094118 10 0 6.4 11.3 0.00 0.00 0.00 95 1021.0
20260905093610 10 0 8.0 12.9 0.00 0.00 0.00 96 1021.0
20260905092552 10 0 9.7 16.1 0.00 0.00 0.00 95 1020.9
20260905092043 10 0 4.8 8.0 0.00 0.00 0.00 95 1020.8
20260905091535 10 0 4.8 11.3 0.00 0.00 0.00 95 1021.1
20260905091026 10 0 6.4 11.3 0.00 0.00 0.00 95 1021.0
20260905090008 10 0 4.8 8.0 0.00 0.00 0.00 95 1020.8
20260905084951 10 0 6.4 9.7 0.00 0.00 0.00 94 1020.9
20260905084442 10 0 6.4 8.0 0.00 0.00 0.00 94 1020.8
20260905083425 10 0 4.8 11.3 0.00 0.00 0.00 95 1020.5
20260905082916 10 0 4.8 9.7 0.00 0.00 0.00 95 1020.6
20260905082407 10 0 8.0 11.3 0.00 0.00 0.00 95 1020.4
20260905081858 10 0 6.4 11.3 0.00 0.00 0.00 95 1020.4
20260905081350 9 0 9.7 17.7 0.00 0.00 0.00 95 1020.4
20260905080841 9 0 6.4 9.7 0.00 0.00 0.00 95 1020.3
20260905080332 9 0 8.0 11.3 0.00 0.00 0.00 95 1020.3
20260905075824 9 0 6.4 11.3 0.00 0.00 0.00 95 1020.2
20260905075315 9 0 4.8 9.7 0.00 0.00 0.00 95 1020.2
20260905074806 9 0 8.0 12.9 0.00 0.00 0.00 95 1020.2
20260905074257 9 0 8.0 12.9 0.00 0.00 0.00 95 1020.0
20260905073749 9 0 6.4 12.9 0.00 0.00 0.00 95 1020.0
20260905073240 9 0 6.4 11.3 0.00 0.00 0.00 95 1020.1
20260905071715 9 0 6.4 12.9 0.00 0.00 0.00 95 1019.9
20260905071205 9 0 8.0 11.3 0.00 0.00 0.00 94 1019.8
20260905070148 8 0 6.4 9.7 0.00 0.00 0.00 94 1019.8
20260905065639 8 0 6.4 9.7 0.00 0.00 0.00 94 1019.9
20260905065130 8 0 4.8 8.0 0.00 0.00 0.00 94 1019.8
20260905064113 8 0 6.4 9.7 0.00 0.00 0.00 94 1019.7
20260905063604 8 0 6.4 11.3 0.00 0.00 0.00 94 1019.6
20260905063055 8 0 4.8 9.7 0.00 0.00 0.00 94 1019.4
20260905062547 8 0 6.4 9.7 0.00 0.00 0.00 94 1019.5
20260905062038 8 0 8.0 12.9 0.00 0.00 0.00 94 1019.4
20260905061529 8 0 6.4 11.3 0.00 0.00 0.00 94 1019.5
20260905061021 8 0 6.4 9.7 0.00 0.00 0.00 94 1019.4
20260905060003 8 0 6.4 8.0 0.00 0.00 0.00 94 1019.2
20260905055455 8 0 6.4 11.3 0.00 0.00 0.00 94 1019.3
20260905054946 8 0 6.4 0.0 0.00 0.00 0.00 94 1019.1
20260905054437 8 0 8.0 12.9 0.00 0.00 0.00 93 1019.0
20260905053928 8 0 6.4 9.7 0.00 0.00 0.00 93 1018.9
20260905053420 8 0 6.4 9.7 0.00 0.00 0.00 93 1018.9
20260905052402 8 0 6.4 9.7 0.00 0.00 0.00 93 1018.8
20260905051854 8 0 6.4 11.3 0.00 0.00 0.00 92 1018.9
20260905051345 9 0 6.4 9.7 0.00 0.00 0.00 92 1019.0
20260905050836 9 0 4.8 12.9 0.00 0.00 0.00 92 1018.9
20260905050328 9 0 8.0 11.3 0.00 0.00 0.00 92 1018.7
20260905045819 10 0 6.4 16.1 0.00 0.00 0.00 92 1018.7
20260905045310 10 0 4.8 9.7 0.00 0.00 0.00 92 1018.6
20260905044253 10 0 4.8 12.9 0.00 0.00 0.00 92 1018.4
20260905043744 10 0 4.8 9.7 0.00 0.00 0.00 92 1018.5
20260905043235 10 0 4.8 8.0 0.00 0.00 0.00 92 1018.5
20260905042726 10 0 3.2 4.8 0.00 0.00 0.00 92 1018.2
20260905042218 10 0 4.8 8.0 0.00 0.00 0.00 92 1018.2
20260905041709 10 0 4.8 11.3 0.00 0.00 0.00 92 1018.5
20260905041200 9 0 6.4 11.3 0.00 0.00 0.00 92 1018.6
20260905040651 9 0 4.8 8.0 0.00 0.00 0.00 92 1019.1
20260905040143 9 0 4.8 9.7 0.00 0.00 0.00 92 1018.7
20260905035634 9 0 6.4 14.5 0.00 0.00 0.00 92 1018.7
20260905034617 9 0 4.8 9.7 0.00 0.00 0.00 91 1018.7
20260905034108 9 0 4.8 9.7 0.00 0.00 0.00 91 1018.3
20260905033559 10 0 4.8 9.7 0.00 0.00 0.00 91 1018.0
20260905033050 10 0 6.4 11.3 0.00 0.00 0.00 91 1018.2
20260905032542 10 0 4.8 9.7 0.00 0.00 0.00 91 1018.4
20260905032033 10 0 6.4 11.3 0.00 0.00 0.00 91 1018.4
20260905031524 10 0 6.4 9.7 0.00 0.00 0.00 91 1018.4
20260905031015 10 0 6.4 11.3 0.00 0.00 0.00 91 1018.3
20260905030507 10 0 6.4 9.7 0.00 0.00 0.00 91 1018.2
20260905025958 10 0 6.4 19.3 0.00 0.00 0.00 90 1017.9
20260905025449 10 0 4.8 8.0 0.00 0.00 0.00 90 1018.1
20260905024940 10 0 4.8 8.0 0.00 0.00 0.00 90 1018.2
20260905024432 10 0 4.8 9.7 0.00 0.00 0.00 90 1018.2
20260905023923 10 0 4.8 8.0 0.00 0.00 0.00 90 1018.0
20260905023414 10 0 4.8 11.3 0.00 0.00 0.00 90 1018.1
20260905022905 10 0 4.8 9.7 0.00 0.00 0.00 90 1017.8
20260905022357 11 0 4.8 9.7 0.00 0.00 0.00 90 1017.8
20260905021339 11 0 4.8 9.7 0.00 0.00 0.00 90 1018.3
20260905020830 11 0 4.8 9.7 0.00 0.00 0.00 90 1017.9
20260905020321 11 0 4.8 8.0 0.00 0.00 0.00 90 1018.0
20260905015306 11 0 4.8 9.7 0.00 0.00 0.00 89 1017.6
20260905014755 11 0 4.8 9.7 0.00 0.00 0.00 89 1017.6
20260905014246 11 0 6.4 11.3 0.00 0.00 0.00 89 1017.6
20260905013737 11 0 6.4 11.3 0.00 0.00 0.00 89 1017.9
20260905013229 11 0 4.8 8.0 0.00 0.00 0.00 89 1017.9
20260905012720 11 0 4.8 8.0 0.00 0.00 0.00 89 1017.9
20260905012211 11 0 3.2 8.0 0.00 0.00 0.00 89 1017.7
20260905011153 11 0 4.8 8.0 0.00 0.00 0.00 89 1017.7
20260905010644 12 0 3.2 6.4 0.00 0.00 0.00 88 1017.8
20260905010136 12 0 4.8 6.4 0.00 0.00 0.00 88 1017.9
20260905005627 12 0 4.8 8.0 0.00 0.00 0.00 88 1017.6
20260905005118 12 0 4.8 8.0 0.00 0.00 0.00 88 1017.9
20260905004609 12 0 4.8 8.0 0.00 0.00 0.00 88 1018.0
20260905004100 12 0 4.8 8.0 0.00 0.00 0.00 88 1017.9
20260905003551 12 0 3.2 6.4 0.00 0.00 0.00 88 1017.8
20260905002025 12 0 4.8 8.0 0.00 0.00 0.00 88 1017.7
20260905001516 13 0 4.8 12.9 0.00 0.00 0.00 88 1018.0
20260905001007 13 0 3.2 6.4 0.00 0.00 0.00 88 1017.7
20260905000458 13 0 3.2 8.0 0.00 0.00 0.00 88 1017.6
20260904235949 13 0 3.2 6.4 0.00 0.00 0.00 88 1017.4
20260904235440 13 0 3.2 6.4 0.00 0.00 0.00 88 1017.2
20260904234931 13 0 3.2 8.0 0.00 0.00 0.00 88 1017.2
20260904234422 13 0 3.2 6.4 0.00 0.00 0.00 88 1017.1
20260904233405 13 0 3.2 9.7 0.00 0.00 0.00 88 1017.1
20260904232856 13 0 3.2 9.7 0.00 0.00 0.00 88 1017.1
20260904232347 13 0 3.2 4.8 0.00 0.00 0.00 87 1017.1
20260904231838 13 0 3.2 3.2 0.00 0.00 0.00 87 1017.0
20260904231329 13 0 1.6 3.2 0.00 0.00 0.00 87 1017.1
20260904230820 14 0 0.0 1.6 0.00 0.00 0.00 86 1016.9
20260904230311 14 0 1.6 4.8 0.00 0.00 0.00 86 1016.7
20260904225802 15 0 1.6 3.2 0.00 0.00 0.00 85 1016.8
20260904225253 15 0 1.6 3.2 0.00 0.00 0.00 86 1016.7
20260904224744 16 0 1.6 3.2 0.00 0.00 0.00 86 1016.4
20260904223726 16 0 3.2 8.0 0.00 0.00 0.00 87 1016.4
20260904223217 16 0 1.6 4.8 0.00 0.00 0.00 87 1016.3
20260904222708 16 0 3.2 6.4 0.00 0.00 0.00 87 1016.4
20260904222158 16 0 3.2 4.8 0.00 0.00 0.00 87 1016.4
20260904221649 16 0 3.2 4.8 0.00 0.00 0.00 87 1016.3
20260904221140 15 0 3.2 4.8 0.00 0.00 0.00 86 1016.3
20260904220631 16 0 3.2 4.8 0.00 0.00 0.00 86 1016.2
20260904220122 16 0 1.6 4.8 0.00 0.00 0.00 86 1016.3
20260904215613 16 0 3.2 6.4 0.00 0.00 0.00 86 1016.1
20260904215104 16 0 3.2 4.8 0.00 0.00 0.00 86 1016.2
20260904214555 16 0 1.6 3.2 0.00 0.00 0.00 86 1016.1
20260904214046 16 0 3.2 6.4 0.00 0.00 0.00 86 1015.9
20260904213537 16 0 3.2 6.4 0.00 0.00 0.00 85 1015.9
20260904213028 16 0 3.2 9.7 0.00 0.00 0.00 85 1015.9
20260904212519 16 0 3.2 4.8 0.00 0.00 0.00 85 1015.8
20260904212010 16 0 3.2 6.4 0.00 0.00 0.00 85 1016.0
20260904211500 16 0 3.2 6.4 0.00 0.00 0.00 85 1015.8
20260904210951 17 0 4.8 8.0 0.00 0.00 0.00 85 1015.7
20260904210442 17 0 4.8 11.3 0.00 0.00 0.00 85 1015.8
20260904205933 17 0 6.4 11.3 0.00 0.00 0.00 85 1015.8
20260904205424 17 0 9.7 24.1 0.00 0.00 0.00 85 1015.8
20260904204915 17 0 8.0 16.1 0.00 0.00 0.00 85 1015.5
20260904204405 17 0 9.7 0.0 0.00 0.00 0.00 85 1015.3
20260904203856 17 0 8.0 17.7 0.00 0.00 0.00 85 1015.4
20260904203347 17 0 11.3 27.4 0.00 0.00 0.00 85 1015.4
20260904202838 17 0 8.0 19.3 0.00 0.00 0.00 86 1015.4
20260904202329 17 0 9.7 0.0 0.00 0.00 0.00 86 1015.5
20260904201820 17 0 8.0 14.5 0.00 0.00 0.00 86 1015.4
20260904201311 17 0 8.0 11.3 0.00 0.00 0.00 86 1015.6
20260904200801 17 0 8.0 17.7 0.00 0.00 0.00 86 1015.4
20260904200252 17 0 9.7 19.3 0.00 0.00 0.00 87 1015.4
20260904195743 17 0 9.7 16.1 0.00 0.00 0.00 87 1015.5
20260904195234 17 0 9.7 20.9 0.00 0.00 0.00 87 1015.6
20260904194725 17 0 8.0 0.0 0.00 0.00 0.00 87 1015.5
20260904193707 16 0 8.0 0.0 0.00 0.00 0.00 88 1015.5
20260904193157 16 0 9.7 16.1 0.00 0.00 0.00 88 1015.5
20260904192648 16 0 11.3 20.9 0.00 0.00 0.00 88 1015.6
20260904192139 16 0 9.7 19.3 0.00 0.00 0.00 88 1015.5
20260904191121 16 0 8.0 17.7 0.00 0.00 0.00 89 1015.5
20260904190612 16 0 9.7 12.9 0.00 0.00 0.00 89 1015.5
20260904185554 16 0 6.4 0.0 0.00 0.00 0.00 89 1015.5
20260904185044 16 0 9.7 16.1 0.00 0.00 0.00 89 1015.5
20260904184536 16 0 8.0 19.3 0.00 0.00 0.00 90 1015.5
20260904184026 16 0 9.7 22.5 0.00 0.00 0.00 90 1015.7
20260904183517 16 0 8.0 16.1 0.00 0.00 0.00 90 1015.7
20260904183008 16 0 8.0 12.9 0.00 0.00 0.00 90 1015.7
20260904181950 16 0 9.7 25.7 0.00 0.00 0.00 90 1015.8
20260904181441 16 0 6.4 12.9 0.00 0.00 0.00 91 1015.9
20260904180932 16 0 11.3 24.1 0.00 0.00 0.00 91 1015.8
20260904180422 16 0 8.0 19.3 0.00 0.00 0.00 91 1015.8
20260904175404 16 0 8.0 16.1 0.00 0.00 0.00 91 1015.7
20260904174855 16 0 8.0 17.7 0.00 0.00 0.00 92 1015.7
20260904174346 16 0 8.0 22.5 0.00 0.00 0.00 92 1015.6
20260904173837 16 0 8.0 19.3 0.00 0.00 0.00 92 1015.6
20260904173328 16 0 9.7 19.3 0.00 0.00 0.00 92 1015.6
20260904172819 16 0 9.7 14.5 0.00 0.00 0.00 92 1015.6
20260904171252 16 0 9.7 20.9 0.00 0.00 0.00 93 1015.7
20260904170742 16 0 8.0 16.1 0.00 0.00 0.00 93 1015.7